This is the latest recevied weather packets stored in our database for station/object KB2AHZ. If no packets are shown the sender has not sent any weather packets the latest 10 day(s).
| Time | Temp. | Humidity | Pressure | Rain* | Wind** | Luminosity | Snow |
|---|---|---|---|---|---|---|---|
| 1777104235 | 20° C | 66% | 1008.4 hPa | 0 mm | - | 0 W/m² | - |
| 1777103930 | 19.44° C | 69% | 1008.3 hPa | 0 mm | - | 0 W/m² | - |
| 1777103627 | 19.44° C | 69% | 1008.3 hPa | 0 mm | - | 0 W/m² | - |
| 1777103324 | 19.44° C | 68% | 1008.2 hPa | 0 mm | - | 0 W/m² | - |
| 1777103022 | 20° C | 67% | 1008.2 hPa | 0 mm | - | 0 W/m² | - |
| 1777102718 | 20° C | 67% | 1008.4 hPa | 0 mm | - | 0 W/m² | - |
| 1777102414 | 20° C | 67% | 1008.3 hPa | 0 mm | - | 0 W/m² | - |
| 1777102110 | 20° C | 68% | 1008.4 hPa | 0 mm | - | 0 W/m² | - |
| 1777101806 | 19.44° C | 68% | 1008.4 hPa | 0 mm | - | 0 W/m² | - |
| 1777101502 | 19.44° C | 69% | 1008.6 hPa | 0 mm | - | 0 W/m² | - |
| 1777101199 | 18.89° C | 69% | 1008.4 hPa | 0 mm | - | 0 W/m² | - |
| 1777100896 | 18.89° C | 70% | 1008.6 hPa | 0 mm | - | 0 W/m² | - |
| 1777100592 | 18.89° C | 73% | 1008.8 hPa | 0 mm | - | 0 W/m² | - |
| 1777100289 | 18.89° C | 73% | 1008.5 hPa | 0 mm | - | 0 W/m² | - |
| 1777099987 | 18.89° C | 70% | 1008.6 hPa | 0 mm | - | 0 W/m² | - |
| 1777099682 | 18.89° C | 71% | 1008.6 hPa | 0 mm | - | 0 W/m² | - |
| 1777099378 | 18.89° C | 71% | 1008.3 hPa | 0 mm | - | 0 W/m² | - |
| 1777099075 | 18.89° C | 71% | 1008.6 hPa | 0 mm | - | 0 W/m² | - |
| 1777098772 | 18.89° C | 70% | 1008.7 hPa | 0 mm | - | 0 W/m² | - |
| 1777098467 | 19.44° C | 68% | 1008.5 hPa | 0 mm | - | 0 W/m² | - |
| 1777098165 | 19.44° C | 67% | 1008.6 hPa | 0 mm | - | 0 W/m² | - |
| 1777097862 | 19.44° C | 66% | 1008.4 hPa | 0 mm | - | 0 W/m² | - |
| 1777097559 | 19.44° C | 66% | 1008.5 hPa | 0 mm | - | 0 W/m² | - |
| 1777097256 | 19.44° C | 65% | 1008.8 hPa | 0 mm | - | 0 W/m² | - |
| 1777096953 | 20° C | 65% | 1008.6 hPa | 0 mm | - | 0 W/m² | - |
* Rain latest hour (hover to see other rain measurements)
** Current wind speed in m/s (hover to see current wind gust speed)